Location: Bergnershof
(48.9468°N, 10.9431°E)
Time: 22:27:46
(UTC+00:00)

Meteor 2-4 Rocket - Pass Details

Date: 03 March 2021
Orbit: 799 x 908 km, 81.2° (Epoch: 13 April)

Event Time Altitude Azimuth Distance (km) Brightness Sun altitude
Rises 18:45:17 0° 346° (NNW) 3,486 7.2 -17.5°
Reaches altitude 10° 18:47:44 10° 343° (NNW) 2,557 6.5 -17.9°
Maximum altitude 18:53:31 67° 263° (W) 974 4.2 -18.9°
Drops below altitude 10° 18:59:22 10° 182° (S) 2,582 6.1 -19.8°
Sets 19:01:50 0° 180° (S) 3,522 6.8 -20.2°
